Content
SEND FEEDBACK

Daily
Averages
Monthly
Summary
United States of America

KELSEY, CALIFORNIA


Home > North America > United States > California
Elevation: 2000 feet     Latitude: 38 49N     Longitude: 120 49W

WEATHER
 
SELECT A DAY
Number of Records: 98,367;   Date Range: 7/10/09 - 9/29/14
 
SHARE

PRINT THIS DATA

[ ← Previous Day ]
WEATHER ALMANAC - FEBRUARY 13, 2013
[ Next Day → ]
[ °C ]   °F
Weather ElementAverageHighLow
Temperature47.4 °F55.4 °F (12:55 pm)41 °F (12:35 am)
Dewpoint33.1 °F35.6 °F (12:55 pm)28.4 °F (4:55 am)
Humidity58.3 %71 % (9:55 pm)44 % (10:55 am)
Barometer30.27 in30.32 in (1:55 am)30.22 in (8:15 pm)
Wind Speed4.4 mph8.1 mph (9:55 pm)
Weather ElementAverage
Visibility10 mi
Wind DirectionSSE (162.3 °)

Weather ElementTotal
Precipitation---
Heating Degree Days16.8 (Base 65)
Averaged from 69 records on February 13, 2013
WEATHER CONDITIONS BREAKOUT
WIND DIRECTION BREAKOUT
WEATHER BY HOUR - FEBRUARY 13, 2013
[ °C ]   °F
Local TimeTemperatureDewpointHumidityBarometerVisibilityWind DirectionWind SpeedGust SpeedPrecipitationEventsConditions
12:35 AM41.0 °F32.0 °F70 %30.31 in10.0 miEast (100°)4.6 mphClear
12:55 AM41.0 °F32.0 °F70 %30.31 in10.0 miEast (100°)3.5 mphClear
1:15 AM41.0 °F32.0 °F70 %30.31 in10.0 miEast (100°)4.6 mphClear
1:35 AM41.0 °F32.0 °F70 %30.31 in10.0 miEast (100°)5.8 mphClear
1:55 AM41.0 °F32.0 °F70 %30.32 in10.0 miEast (90°)6.9 mphPartly Cloudy
2:15 AM42.8 °F32.0 °F66 %30.31 in10.0 miEast (100°)5.8 mphClear
2:35 AM42.8 °F32.0 °F66 %30.31 in10.0 miEast (100°)5.8 mphClear
2:55 AM42.8 °F32.0 °F66 %30.30 in10.0 miEast (90°)6.9 mphClear
3:15 AM42.8 °F32.0 °F66 %30.30 in10.0 miESE (110°)6.9 mphClear
3:35 AM41.0 °F32.0 °F70 %30.29 in10.0 miESE (110°)5.8 mphClear
3:55 AM42.8 °F32.0 °F66 %30.29 in10.0 miESE (110°)4.6 mphClear
4:15 AM41.0 °F32.0 °F70 %30.29 in10.0 miESE (110°)4.6 mphClear
4:35 AM41.0 °F30.2 °F65 %30.29 in10.0 miESE (110°)6.9 mphClear
4:55 AM41.0 °F28.4 °F61 %30.29 in10.0 miESE (110°)4.6 mphClear
5:15 AM42.8 °F28.4 °F57 %30.29 in10.0 miEast (100°)3.5 mphClear
5:35 AM42.8 °F28.4 °F57 %30.29 in10.0 miEast (100°)5.8 mphClear
5:55 AM42.8 °F28.4 °F57 %30.29 in10.0 miEast (90°)3.5 mphClear
6:15 AM42.8 °F28.4 °F57 %30.29 in10.0 miEast (100°)5.8 mphClear
6:35 AM44.6 °F28.4 °F53 %30.29 in10.0 miEast (80°)3.5 mphClear
6:55 AM41.0 °F28.4 °F61 %30.29 in10.0 miEast (80°)5.8 mphClear
7:15 AM41.0 °F28.4 °F61 %30.30 in10.0 miEast (80°)4.6 mphClear
7:35 AM44.6 °F28.4 °F53 %30.30 in10.0 miEast (80°)3.5 mphClear
7:55 AM44.6 °F30.2 °F57 %30.30 in10.0 miCalmClear
8:15 AM44.6 °F32.0 °F61 %30.31 in10.0 miEast (100°)3.5 mphClear
8:55 AM46.4 °F32.0 °F57 %30.30 in10.0 miSE (140°)3.5 mphClear
9:15 AM48.2 °F32.0 °F54 %30.30 in10.0 miCalmClear
9:35 AM48.2 °F32.0 °F54 %30.31 in10.0 miSSW (200°)3.5 mphClear
9:55 AM50.0 °F32.0 °F50 %30.31 in10.0 miSW (230°)4.6 mphClear
10:15 AM50.0 °F32.0 °F50 %30.31 in10.0 miSSW (210°)4.6 mphClear
10:35 AM50.0 °F32.0 °F50 %30.32 in10.0 miSSW (210°)5.8 mphClear
10:55 AM53.6 °F32.0 °F44 %30.31 in10.0 miWSW (240°)5.8 mphClear
11:15 AM53.6 °F32.0 °F44 %30.31 in10.0 miCalmClear
11:35 AM53.6 °F32.0 °F44 %30.30 in10.0 miSSW (210°)6.9 mphClear
11:55 AM53.6 °F32.0 °F44 %30.30 in10.0 miSSW (210°)5.8 mphClear
12:15 PM53.6 °F33.8 °F47 %30.29 in10.0 miWNW (290°)3.5 mphClear
12:35 PM53.6 °F33.8 °F47 %30.28 in10.0 miWNW (290°)4.6 mphClear
12:55 PM55.4 °F35.6 °F47 %30.27 in10.0 miWest (260°)4.6 mphClear
1:15 PM55.4 °F35.6 °F47 %30.26 in10.0 miSW (230°)4.6 mphClear
1:35 PM55.4 °F35.6 °F47 %30.26 in10.0 miSW (230°)5.8 mphClear
1:55 PM55.4 °F35.6 °F47 %30.25 in10.0 miWSW (240°)4.6 mphClear
2:15 PM55.4 °F35.6 °F47 %30.25 in10.0 miWSW (240°)4.6 mphClear
2:35 PM55.4 °F35.6 °F47 %30.24 in10.0 miWest (260°)4.6 mphClear
2:55 PM55.4 °F35.6 °F47 %30.24 in10.0 miWSW (250°)4.6 mphClear
3:15 PM55.4 °F35.6 °F47 %30.24 in10.0 miNW (310°)3.5 mphClear
3:35 PM55.4 °F35.6 °F47 %30.24 in10.0 miWSW (240°)5.8 mphClear
3:55 PM53.6 °F35.6 °F51 %30.24 in10.0 miWest (270°)5.8 mphClear
4:15 PM53.6 °F35.6 °F51 %30.23 in10.0 miWest (270°)5.8 mphClear
4:35 PM51.8 °F35.6 °F54 %30.23 in10.0 miWest (280°)3.5 mphClear
4:55 PM51.8 °F35.6 °F54 %30.23 in10.0 miSW (230°)3.5 mphClear
5:15 PM50.0 °F35.6 °F58 %30.23 in10.0 miWSW (240°)4.6 mphClear
5:35 PM48.2 °F35.6 °F62 %30.23 in10.0 miWSW (240°)3.5 mphClear
5:55 PM48.2 °F35.6 °F62 %30.23 in10.0 miCalmClear
6:15 PM48.2 °F35.6 °F62 %30.23 in10.0 miCalmClear
6:55 PM46.4 °F35.6 °F66 %30.23 in10.0 miEast (100°)4.6 mphClear
7:15 PM46.4 °F35.6 °F66 %30.23 in10.0 miEast (90°)5.8 mphClear
7:35 PM46.4 °F35.6 °F66 %30.23 in10.0 miEast (90°)3.5 mphClear
7:55 PM48.2 °F35.6 °F62 %30.23 in10.0 miNNW (340°)3.5 mphClear
8:15 PM46.4 °F35.6 °F66 %30.22 in10.0 miNorth (360°)3.5 mphClear
8:35 PM46.4 °F35.6 °F66 %30.23 in10.0 miNorth (360°)4.6 mphClear
8:55 PM46.4 °F35.6 °F66 %30.23 in10.0 miNorth (360°)4.6 mphClear
9:15 PM46.4 °F35.6 °F66 %30.23 in10.0 miNorth (360°)6.9 mphClear
9:35 PM46.4 °F35.6 °F66 %30.23 in10.0 miNNE (30°)5.8 mphClear
9:55 PM44.6 °F35.6 °F71 %30.23 in10.0 miESE (110°)8.1 mphClear
10:15 PM44.6 °F35.6 °F71 %30.23 in10.0 miSE (130°)5.8 mphClear
10:35 PM44.6 °F35.6 °F71 %30.23 in10.0 miSE (140°)3.5 mphClear
10:55 PM46.4 °F33.8 °F62 %30.24 in10.0 miCalmClear
11:15 PM48.2 °F32.0 °F54 %30.23 in10.0 miSW (230°)3.5 mphClear
11:35 PM46.4 °F33.8 °F62 %30.24 in10.0 miSW (230°)3.5 mphClear
11:55 PM46.4 °F33.8 °F62 %30.24 in10.0 miCalmClear
Hourly data recorded from KPVF, located miles away from Kelsey, California







STORIES FROM OUR PARTNERS